TimePST,TemperatureF,Dew PointF,Humidity,Sea Level PressureIn,VisibilityMPH,Wind Direction,Wind SpeedMPH,Gust SpeedMPH,PrecipitationIn,Events,Conditions,WindDirDegrees,DateUTC
12:53 AM,39.9,39.0,97,30.33,0.2,Calm,Calm,-,N/A,Fog,Fog,0,2011-11-27 08:53:00
1:53 AM,41.0,39.9,96,30.34,0.2,Calm,Calm,-,N/A,Fog,Fog,0,2011-11-27 09:53:00
2:53 AM,42.1,39.9,92,30.33,0.2,Calm,Calm,-,N/A,Fog,Fog,0,2011-11-27 10:53:00
3:53 AM,42.1,39.9,92,30.33,0.2,Calm,Calm,-,N/A,Fog,Fog,0,2011-11-27 11:53:00
4:53 AM,42.1,41.0,96,30.33,0.2,Calm,Calm,-,N/A,Fog,Fog,0,2011-11-27 12:53:00
5:53 AM,42.1,39.9,92,30.35,0.2,Calm,Calm,-,N/A,Fog,Fog,0,2011-11-27 13:53:00
7:53 AM,41.0,39.0,93,30.39,0.2,West,4.6,-,N/A,Fog,Fog,270,2011-11-27 15:53:00
8:53 AM,43.0,42.1,97,30.40,0.2,Calm,Calm,-,N/A,Fog,Fog,0,2011-11-27 16:53:00
9:53 AM,45.0,44.1,97,30.39,0.2,SE,3.5,-,N/A,Fog,Fog,140,2011-11-27 17:53:00
10:53 AM,46.9,46.0,97,30.39,0.2,Calm,Calm,-,N/A,Fog,Fog,0,2011-11-27 18:53:00
11:01 AM,48.2,46.4,93,30.38,0.2,Calm,Calm,-,N/A,Fog,Fog,0,2011-11-27 19:01:00
11:42 AM,48.2,46.4,93,30.35,0.5,North,-9999.0,-,N/A,Fog,Fog,0,2011-11-27 19:42:00
11:53 AM,48.9,46.9,93,30.36,0.5,North,-9999.0,-,N/A,Fog,Fog,0,2011-11-27 19:53:00
12:15 PM,48.2,46.4,93,30.35,1.5,Calm,Calm,-,N/A,,Overcast,0,2011-11-27 20:15:00
12:33 PM,50.0,46.4,87,30.34,2.0,Calm,Calm,-,N/A,,Mostly Cloudy,0,2011-11-27 20:33:00
12:44 PM,53.6,48.2,82,30.34,3.0,Variable,3.5,-,N/A,,Haze,0,2011-11-27 20:44:00
12:53 PM,54.0,46.9,77,30.35,3.0,NE,4.6,-,N/A,,Haze,40,2011-11-27 20:53:00
1:53 PM,57.9,48.9,72,30.30,3.0,Calm,Calm,-,N/A,,Haze,0,2011-11-27 21:53:00
2:53 PM,60.1,48.9,67,30.29,4.0,Calm,Calm,-,N/A,,Haze,0,2011-11-27 22:53:00
3:53 PM,59.0,48.9,69,30.28,3.0,Calm,Calm,-,N/A,,Haze,0,2011-11-27 23:53:00
4:53 PM,54.0,48.0,80,30.28,3.0,Calm,Calm,-,N/A,,Haze,0,2011-11-28 00:53:00
5:53 PM,48.9,46.9,93,30.29,2.5,Calm,Calm,-,N/A,,Clear,0,2011-11-28 01:53:00
6:18 PM,48.2,44.6,87,30.28,1.5,Calm,Calm,-,N/A,,Clear,0,2011-11-28 02:18:00
6:53 PM,46.9,43.0,86,30.30,0.8,Calm,Calm,-,N/A,,Clear,0,2011-11-28 02:53:00
7:00 PM,46.4,44.6,93,30.29,2.0,Calm,Calm,-,N/A,,Clear,0,2011-11-28 03:00:00
7:22 PM,46.4,44.6,93,30.29,1.0,Calm,Calm,-,N/A,,Clear,0,2011-11-28 03:22:00
7:34 PM,44.6,42.8,93,30.29,0.5,Calm,Calm,-,N/A,Fog,Fog,0,2011-11-28 03:34:00
7:37 PM,44.6,42.8,93,30.29,0.2,Calm,Calm,-,N/A,Fog,Fog,0,2011-11-28 03:37:00
7:49 PM,44.6,42.8,93,30.29,1.0,NW,3.5,-,N/A,,Mist,320,2011-11-28 03:49:00
7:53 PM,46.9,43.0,86,30.30,1.8,NW,3.5,-,N/A,,Partly Cloudy,320,2011-11-28 03:53:00
8:25 PM,44.6,42.8,93,30.29,0.2,Calm,Calm,-,0.01,Fog,Fog,0,2011-11-28 04:25:00
8:35 PM,42.8,42.8,100,30.30,0.2,Calm,Calm,-,0.01,Fog,Fog,0,2011-11-28 04:35:00
8:53 PM,41.0,39.9,96,30.31,0.2,Calm,Calm,-,0.01,Fog,Fog,0,2011-11-28 04:53:00
9:05 PM,42.8,41.0,93,30.30,1.0,Calm,Calm,-,N/A,,Mist,0,2011-11-28 05:05:00
9:18 PM,42.8,41.0,93,30.30,0.2,Calm,Calm,-,N/A,Fog,Fog,0,2011-11-28 05:18:00
9:42 PM,44.6,41.0,87,30.30,0.2,NW,3.5,-,N/A,Fog,Fog,320,2011-11-28 05:42:00
9:51 PM,42.8,41.0,93,30.30,0.2,Calm,Calm,-,N/A,Fog,Fog,0,2011-11-28 05:51:00
9:53 PM,43.0,41.0,93,30.31,0.2,Calm,Calm,-,N/A,Fog,Fog,0,2011-11-28 05:53:00
10:07 PM,42.8,41.0,93,30.30,0.2,Calm,Calm,-,N/A,Fog,Fog,0,2011-11-28 06:07:00
10:16 PM,42.8,41.0,93,30.29,1.0,Calm,Calm,-,N/A,,Mist,0,2011-11-28 06:16:00
10:24 PM,42.8,41.0,93,30.29,0.2,Calm,Calm,-,N/A,Fog,Fog,0,2011-11-28 06:24:00
10:49 PM,39.2,37.4,93,30.30,0.2,Calm,Calm,-,N/A,Fog,Fog,0,2011-11-28 06:49:00
10:53 PM,39.0,37.0,93,30.31,0.2,Calm,Calm,-,N/A,Fog,Fog,0,2011-11-28 06:53:00
11:01 PM,39.2,37.4,93,30.30,0.2,SSW,3.5,-,N/A,Fog,Fog,210,2011-11-28 07:01:00
11:20 PM,39.2,37.4,93,30.30,0.2,Calm,Calm,-,N/A,Fog,Fog,0,2011-11-28 07:20:00
11:53 PM,44.1,42.1,93,30.31,0.2,NW,5.8,-,N/A,Fog,Fog,320,2011-11-28 07:53:00